| time (UTC) | temp C | wind direction | speed KPH | gust KPH | rain 1hr cm | rain 24hr cm | rain mn cm | humidity % | barometer mb |
| 20260906100041 | 23 | 92 | 1.6 | 9.7 | 0.00 | 0.00 | 0.00 | 68 | 1023.7 |
| 20260906093105 | 22 | 236 | 1.6 | 9.7 | 0.00 | 0.00 | 0.00 | 70 | 1023.6 |
| 20260906091548 | 22 | 301 | 1.6 | 9.7 | 0.00 | 0.00 | 0.00 | 69 | 1023.8 |
| 20260906084555 | 22 | 281 | 1.6 | 6.4 | 0.00 | 0.00 | 0.00 | 67 | 1023.8 |
| 20260906083057 | 22 | 259 | 0.0 | 4.8 | 0.00 | 0.00 | 0.00 | 67 | 1023.8 |
| 20260906081543 | 22 | 174 | 0.0 | 6.4 | 0.00 | 0.00 | 0.00 | 73 | 1023.9 |
| 20260906074609 | 20 | 266 | 1.6 | 8.0 | 0.00 | 0.03 | 0.00 | 75 | 1023.8 |
| 20260906071610 | 16 | 175 | 0.0 | 3.2 | 0.00 | 0.03 | 0.00 | 96 | 1023.6 |
| 20260906070046 | 15 | 175 | 0.0 | 3.2 | 0.00 | 0.03 | 0.00 | 96 | 1023.8 |
| 20260906064544 | 14 | 175 | 0.0 | 0.0 | 0.00 | 0.03 | 0.00 | 96 | 1023.7 |
| 20260906061551 | 11 | 175 | 0.0 | 0.0 | 0.00 | 0.03 | 0.00 | 95 | 1023.3 |
| 20260906054555 | 9 | 175 | 0.0 | 0.0 | 0.00 | 0.03 | 0.00 | 95 | 1023.3 |
| 20260906051610 | 8 | 175 | 0.0 | 0.0 | 0.00 | 0.03 | 0.00 | 94 | 1023.0 |
| 20260906050124 | 8 | 175 | 0.0 | 0.0 | 0.00 | 0.03 | 0.00 | 94 | 1022.9 |
| 20260906044551 | 8 | 175 | 0.0 | 0.0 | 0.00 | 0.03 | 0.00 | 93 | 1022.8 |
| 20260906041602 | 9 | 175 | 0.0 | 0.0 | 0.00 | 0.03 | 0.00 | 93 | 1022.5 |
| 20260906040046 | 9 | 175 | 0.0 | 0.0 | 0.00 | 0.03 | 0.00 | 94 | 1022.4 |
| 20260906033108 | 10 | 175 | 0.0 | 0.0 | 0.00 | 0.03 | 0.00 | 94 | 1022.3 |
| 20260906031606 | 10 | 175 | 0.0 | 0.0 | 0.00 | 0.03 | 0.00 | 94 | 1022.1 |
| 20260906030047 | 10 | 175 | 0.0 | 0.0 | 0.00 | 0.03 | 0.00 | 93 | 1021.9 |
| 20260906024544 | 10 | 175 | 0.0 | 0.0 | 0.00 | 0.03 | 0.00 | 94 | 1022.0 |
| 20260906021612 | 10 | 175 | 0.0 | 0.0 | 0.00 | 0.03 | 0.00 | 93 | 1021.9 |
| 20260906020059 | 10 | 175 | 0.0 | 0.0 | 0.00 | 0.03 | 0.00 | 93 | 1021.9 |
| 20260906013101 | 10 | 175 | 0.0 | 0.0 | 0.00 | 0.03 | 0.00 | 93 | 1021.9 |
| 20260906011558 | 10 | 175 | 0.0 | 0.0 | 0.00 | 0.03 | 0.00 | 92 | 1021.9 |
| 20260906004605 | 11 | 175 | 0.0 | 0.0 | 0.00 | 0.03 | 0.00 | 92 | 1021.7 |
| 20260906003040 | 12 | 175 | 0.0 | 0.0 | 0.00 | 0.03 | 0.00 | 93 | 1021.5 |
| 20260906000105 | 12 | 175 | 0.0 | 0.0 | 0.00 | 0.03 | 0.00 | 92 | 1021.5 |
| 20260905233042 | 13 | 175 | 0.0 | 0.0 | 0.00 | 0.03 | 0.00 | 92 | 1021.5 |
| 20260905231544 | 13 | 175 | 0.0 | 0.0 | 0.00 | 0.03 | 0.00 | 92 | 1021.5 |
| 20260905224609 | 13 | 175 | 0.0 | 0.0 | 0.00 | 0.03 | 0.00 | 92 | 1021.5 |
| 20260905223049 | 14 | 175 | 0.0 | 0.0 | 0.00 | 0.03 | 0.00 | 92 | 1021.3 |
| 20260905220205 | 14 | 175 | 0.0 | 3.2 | 0.00 | 0.03 | 0.00 | 94 | 1021.2 |
| 20260905214550 | 13 | 175 | 0.0 | 3.2 | 0.00 | 0.03 | 0.03 | 93 | 1021.2 |
| 20260905211822 | 13 | 175 | 0.0 | 0.0 | 0.00 | 0.03 | 0.03 | 91 | 1020.8 |
| 20260905210107 | 13 | 175 | 0.0 | 0.0 | 0.00 | 0.03 | 0.03 | 91 | 1020.7 |
| 20260905203049 | 15 | 175 | 0.0 | 0.0 | 0.00 | 0.03 | 0.03 | 90 | 1020.5 |
| 20260905200104 | 16 | 175 | 0.0 | 0.0 | 0.00 | 0.03 | 0.03 | 89 | 1020.1 |
| 20260905194552 | 16 | 175 | 0.0 | 3.2 | 0.00 | 0.03 | 0.03 | 88 | 1020.1 |
| 20260905193050 | 17 | 175 | 0.0 | 3.2 | 0.00 | 0.03 | 0.03 | 89 | 1020.1 |
| 20260905191547 | 17 | 175 | 0.0 | 3.2 | 0.00 | 0.03 | 0.03 | 88 | 1019.8 |
| 20260905184612 | 17 | 175 | 0.0 | 3.2 | 0.00 | 0.03 | 0.03 | 88 | 1019.5 |
| 20260905183045 | 18 | 175 | 0.0 | 3.2 | 0.00 | 0.03 | 0.03 | 86 | 1019.4 |
| 20260905181541 | 18 | 175 | 1.6 | 3.2 | 0.00 | 0.03 | 0.03 | 87 | 1019.1 |
| 20260905174622 | 20 | 175 | 0.0 | 3.2 | 0.00 | 0.03 | 0.03 | 84 | 1018.8 |
| 20260905173059 | 20 | 175 | 0.0 | 4.8 | 0.00 | 0.03 | 0.03 | 84 | 1018.6 |
| 20260905170055 | 21 | 197 | 1.6 | 6.4 | 0.00 | 0.03 | 0.03 | 79 | 1018.2 |
| 20260905164545 | 22 | 213 | 1.6 | 4.8 | 0.00 | 0.03 | 0.03 | 78 | 1017.9 |
| 20260905161606 | 23 | 238 | 1.6 | 4.8 | 0.00 | 0.03 | 0.03 | 69 | 1017.7 |
| 20260905160105 | 24 | 275 | 1.6 | 6.4 | 0.00 | 0.03 | 0.03 | 68 | 1017.6 |
| 20260905153039 | 25 | 207 | 1.6 | 8.0 | 0.00 | 0.03 | 0.03 | 63 | 1017.7 |
| 20260905150051 | 26 | 215 | 0.0 | 12.9 | 0.00 | 0.03 | 0.03 | 62 | 1017.6 |
| 20260905143318 | 26 | 267 | 3.2 | 9.7 | 0.00 | 0.03 | 0.03 | 62 | 1017.5 |
| 20260905140054 | 26 | 309 | 3.2 | 11.3 | 0.00 | 0.03 | 0.03 | 63 | 1017.7 |
| 20260905133051 | 26 | 231 | 4.8 | 12.9 | 0.00 | 0.03 | 0.03 | 64 | 1017.6 |
| 20260905131536 | 26 | 275 | 3.2 | 9.7 | 0.00 | 0.03 | 0.03 | 64 | 1017.7 |
| 20260905124600 | 25 | 224 | 1.6 | 8.0 | 0.00 | 0.03 | 0.03 | 63 | 1017.8 |
| 20260905123049 | 25 | 217 | 3.2 | 11.3 | 0.00 | 0.03 | 0.03 | 65 | 1017.9 |
| 20260905120109 | 25 | 161 | 1.6 | 11.3 | 0.00 | 0.03 | 0.03 | 64 | 1018.2 |
| 20260905114606 | 25 | 294 | 6.4 | 12.9 | 0.00 | 0.03 | 0.03 | 62 | 1018.0 |
| 20260905113127 | 25 | 298 | 1.6 | 11.3 | 0.00 | 0.03 | 0.03 | 65 | 1018.0 |
| 20260905111548 | 25 | 161 | 3.2 | 11.3 | 0.00 | 0.03 | 0.03 | 67 | 1018.2 |
| 20260905104615 | 24 | 312 | 1.6 | 6.4 | 0.00 | 0.03 | 0.03 | 67 | 1018.3 |
| 20260905103036 | 23 | 190 | 4.8 | 12.9 | 0.00 | 0.03 | 0.03 | 67 | 1018.3 |